Probability
0 0 0 0 0 0 0 0 0 0 0 0 0 0 0 0 0 0 0 0 0 0 0 0 0 0 0 0 0 0 0 0 0 0 0 0 0 0 0 0 0 0 0
0 0 0 0 0 0 0 0 0 0 0 0 0 0 0 0 0 0 0 0 0 0 0 0 0 0 0 0 0 0 0 0 0 0 0 0 0 0 0 0 0 0 0
0 0 0 0 0 0 0 0 0 0 0 0 0 0 0 0 0 0 0 0 0 0 0 0 0 0 0 0 0 0 0 0 0 0 0 0 0 0 0 0 0 0 0
0 0 0 0 0 0 0 0 0 0 0 0 0 0 0 0 0 0 0 0 0 0 0 0 0 0 0 0 0 0 0 0 0 0 0 0 0 0 0 0 0 0 0
0 0 0 0 0 0 0 0 0 0 0 0 0 0 0 0 0 0 0 0 0 0 0 0 0 0 0 0 0 0 0 0 0 0 0 0 0 0 0 0 0 0 0
0 0 0 0 0 0 0 0 0 0 0 0 0 0 0 0 0 0 0 0 0 0 0 0 0 0 0 0 0 0 0 0 0 0 0 0 0 0 0 0 0 0 0
0 0 0 0 0 0 0 0 0 0 0 0 0 0 0 0 0 0 0 0 0 0 0 0 0 0 0 0 0 0 0 0 0 0 0 0 0 0 0 0 0 0 0
0 0 0 0 0 0 0 0 0 0 0 0 0 0 0 0 0 0 0 0 0 0 0 0 0 0 0 0 0 0 0 0 0 0 0 0 0 0 0 0 0 0 0
0 0 0 0 0 0 0 0 0 0 0 0 0 0 0 0 0 0 0 0 0 0 0 0 0 0 0 0 0 0 0 0 0 0 0 0 0 0 0 0 0 0 0
0 0 0 0 0 0 0 0 0 0 0 0 0 0 0 0 0 0 0 0 0 0 0 0 0 0 0 0 0 0 0 0 0 0 0 0 0 0 0 0 0 0 0
0 0 0 0 0 0 0 0 0 0 0 0 0 0 0 0 0 0 0 0 0 0 0 0 0 0 0 0 0 0 0 0 0 0 0 0 0 0 0 0 0 0 0
0 0 0 0 0 0 0 0 0 0 0 0 0 0 0 0 0 0 0 0 0 0 0 0 0 0 0 0 0 0 0 0 0 0 0 0 0 0 0 0 0 0 0
0 0 0 0 0 0 0 0 0 0 0 0 0 0 0 0 0 0 0 0 0 0 0 0 0 0 0 0 0 0 0 0 0 0 0 0 0 0 0 0 0 0 0
0 0 0 0 0 0 0 0 0 0 0 0 0 0 0 0 0 0 0 0 0 0 0 0 0 0 0 0 0 0 0 0 0 0 0 0 0 0 0 0 0 0 0
0 0 0 0 0 0 0 0 0 0 0 0 0 0 0 0 0 0 0 0 0 0 0 0 0 0 0 0 0 0 0 0 0 0 0 0 0 0 0 0 0 0 0
0 0 0 0 0 0 0 0 0 0 0 0 0 0 0 0 0 0 0 0 0 0 0 0 0 0 0 0 0 0 0 0 0 0 0 0 0 0 0 0 0 0 0
0 0 0 0 0 0 0 0 0 0 0 0 0 0 0 0 0 0 0 0 0 0 0 0 0 0 0 0 0 0 0 0 0 0 0 0 0 0 0 0 0 0 0
0 0 0 0 0 0 0 0 0 0 0 0 0 0 0 0 0 0 0 0 0 0 0 0 0 0 0 0 0 0 0 0 0 0 0 0 0 0 0 0 0 0 0
0 0 0 0 0 0 0 0 0 0 0 0 0 0 0 0 0 0 0 0 0 0 0 0 0 0 0 0 0 0 0 0 0 0 0 0 0 0 0 0 0 0 0
0 0 0 0 0 0 0 0 0 0 0 0 0 0 0 0 0 0 0 0 0 0 0 0 0 0 0 0 0 0 0 0 0 0 0 0 0 0 0 0 0 0 0
0 0 0 0 0 0 0 0 0 0 0 0 0 0 0 0 0 0 0 0 0 0 0 0 0 0 0 0 0 0 0 0 0 0 0 0 0 0 0 0 0 0 0
0 0 0 0 0 0 0 0 0 0 0 0 0 0 0 0 0 0 0 0 0 0 0 0 0 0 0 0 0 0 0 0 0 0 0 0 0 0 0 0 0 0 0
0 0 0 0 0 0 0 0 0 0 0 0 0 0 0 0 0 0 0 0 0 0 0 0 0 0 0 0 0 0 0 0 0 0 0 0 0 0 0 0 0 0 0
0 0 0 0 0 0 0 0 0 0 0 0 0 0 0 0 0 0 0 0 0 0 0 0 0 0 0 0 0 0 0 0 0 0 0 0 0 0 0 0 0 0 0
0 0 0 0 0 0 0 0 0 0 0 0 0 0 0 0 0 0 0 0 0 0 0 0 0 0 0 0 0 0 0 0 0 0 0 0 0 0 0 0 0 0 0
0 0 0 0 0 0 0 0 0 0 0 0 0 0 0 0 0 0 0 0 0 0 0 0 0 0 0 0 0 0 0 0 0 0 0 0 0 0 0 0 0 0 0
Height
5608 5605 5603 5601 5598 5596 5593 5591 5589 5587 5585 5583 5581 5579 5577 5576 5575 5574 5574 5573 5573 5573 5572 5572 5572 5572 5572 5572 5572 5573 5573 5574 5577 5581 5581 5581 5581 5582 5582 5583 5585 5587 5589
5596 5594 5591 5588 5586 5583 5581 5578 5576 5573 5571 5569 5566 5564 5562 5560 5559 5558 5557 5557 5556 5556 5555 5555 5555 5554 5554 5554 5554 5555 5555 5555 5556 5560 5562 5561 5561 5561 5562 5564 5565 5567 5570
5585 5582 5579 5576 5573 5570 5567 5564 5562 5559 5557 5554 5551 5549 5547 5544 5543 5542 5540 5540 5539 5538 5538 5537 5537 5536 5536 5536 5536 5536 5536 5537 5537 5539 5542 5542 5542 5542 5542 5544 5546 5548 5550
5573 5570 5567 5564 5560 5557 5554 5551 5548 5545 5542 5539 5536 5534 5531 5529 5527 5525 5524 5522 5522 5521 5520 5520 5519 5518 5517 5517 5517 5518 5518 5519 5519 5520 5522 5524 5524 5523 5523 5525 5528 5530 5532
5561 5558 5554 5551 5548 5544 5541 5537 5534 5530 5527 5524 5521 5518 5515 5513 5511 5509 5507 5506 5505 5504 5503 5502 5501 5500 5499 5499 5499 5500 5500 5501 5501 5502 5504 5505 5506 5506 5506 5507 5510 5512 5515
5549 5545 5542 5538 5535 5531 5527 5523 5520 5516 5512 5509 5506 5503 5500 5497 5494 5492 5490 5489 5488 5487 5486 5485 5484 5482 5482 5482 5482 5482 5482 5483 5484 5485 5486 5487 5489 5489 5489 5490 5492 5495 5499
5536 5533 5529 5525 5521 5517 5513 5509 5505 5502 5498 5494 5491 5488 5485 5482 5479 5476 5474 5473 5472 5470 5469 5468 5467 5466 5465 5465 5465 5465 5466 5466 5467 5467 5469 5470 5471 5473 5473 5475 5476 5478 5481
5524 5520 5516 5512 5508 5504 5499 5495 5491 5487 5484 5480 5476 5473 5470 5467 5463 5461 5459 5457 5456 5455 5453 5452 5451 5450 5448 5448 5448 5449 5450 5450 5451 5451 5453 5454 5454 5455 5456 5458 5459 5462 5465
5511 5507 5503 5498 5494 5490 5486 5481 5477 5473 5469 5465 5462 5458 5455 5452 5449 5446 5444 5442 5441 5439 5438 5436 5434 5434 5433 5432 5432 5433 5434 5435 5434 5435 5436 5437 5438 5439 5440 5441 5444 5446 5449
5498 5494 5490 5485 5481 5476 5472 5467 5462 5458 5454 5450 5447 5443 5440 5438 5435 5431 5428 5427 5426 5424 5423 5421 5419 5418 5417 5416 5416 5416 5418 5419 5419 5420 5421 5422 5423 5424 5425 5426 5428 5431 5434
5485 5481 5476 5471 5467 5462 5458 5453 5448 5444 5440 5436 5433 5430 5426 5423 5420 5417 5414 5411 5409 5408 5407 5406 5405 5403 5402 5401 5401 5401 5402 5403 5404 5405 5406 5408 5409 5410 5411 5413 5415 5417 5420
5472 5467 5463 5458 5453 5448 5443 5439 5434 5429 5425 5421 5418 5415 5411 5408 5405 5402 5399 5397 5395 5394 5393 5391 5390 5389 5388 5388 5387 5387 5388 5388 5389 5391 5392 5394 5396 5397 5399 5400 5402 5404 5407
5458 5453 5449 5444 5439 5434 5429 5425 5420 5415 5411 5407 5403 5400 5397 5394 5391 5388 5385 5383 5381 5379 5378 5377 5375 5375 5374 5374 5374 5374 5374 5374 5376 5377 5379 5381 5382 5384 5385 5387 5389 5392 5395
5445 5440 5435 5430 5425 5420 5415 5411 5406 5402 5397 5393 5389 5386 5383 5379 5376 5374 5371 5369 5367 5365 5364 5363 5362 5361 5361 5361 5361 5361 5361 5362 5363 5365 5366 5368 5369 5371 5372 5374 5377 5379 5382
5432 5427 5422 5417 5412 5407 5402 5397 5392 5388 5382 5378 5375 5371 5368 5366 5362 5359 5356 5355 5353 5351 5350 5349 5349 5348 5348 5348 5348 5349 5349 5350 5351 5352 5353 5355 5356 5358 5360 5362 5364 5366 5370
5418 5414 5409 5404 5399 5394 5390 5385 5379 5374 5369 5364 5360 5357 5354 5351 5348 5345 5343 5341 5339 5337 5336 5336 5335 5335 5335 5335 5336 5336 5337 5338 5339 5340 5341 5343 5344 5346 5348 5350 5352 5354 5357
5406 5401 5396 5391 5386 5381 5376 5372 5368 5363 5357 5352 5348 5344 5340 5337 5335 5332 5330 5328 5326 5324 5323 5322 5322 5322 5322 5322 5323 5324 5325 5326 5327 5328 5330 5331 5332 5334 5336 5338 5341 5343 5345
5393 5388 5383 5378 5373 5368 5363 5359 5354 5350 5346 5341 5336 5331 5328 5324 5321 5319 5317 5316 5314 5312 5310 5310 5309 5309 5309 5310 5311 5312 5313 5314 5315 5317 5318 5320 5321 5323 5325 5327 5329 5332 5334
5381 5376 5371 5366 5360 5355 5351 5346 5342 5337 5333 5329 5324 5320 5316 5312 5309 5307 5305 5304 5302 5301 5299 5298 5297 5297 5297 5298 5299 5300 5301 5303 5304 5306 5307 5309 5310 5312 5314 5316 5319 5321 5324
5370 5364 5359 5354 5349 5343 5339 5334 5330 5325 5320 5316 5312 5308 5305 5302 5299 5296 5294 5292 5291 5290 5288 5287 5287 5286 5287 5287 5288 5289 5290 5292 5293 5295 5297 5298 5300 5302 5304 5306 5309 5311 5313
5359 5354 5349 5343 5338 5332 5327 5322 5318 5313 5309 5305 5301 5297 5293 5291 5289 5286 5284 5282 5280 5279 5278 5277 5277 5276 5276 5277 5278 5279 5280 5282 5283 5285 5287 5289 5291 5293 5295 5297 5299 5301 5304
5349 5344 5339 5333 5327 5322 5317 5312 5307 5302 5298 5294 5291 5287 5284 5281 5278 5276 5274 5272 5271 5269 5269 5268 5268 5267 5267 5268 5268 5269 5271 5272 5274 5276 5278 5280 5282 5283 5285 5288 5290 5292 5295
5339 5334 5329 5323 5318 5312 5307 5302 5297 5293 5288 5284 5281 5278 5275 5272 5269 5267 5265 5263 5262 5260 5259 5259 5259 5259 5259 5259 5260 5261 5262 5264 5265 5267 5269 5271 5273 5275 5277 5279 5281 5284 5286
5330 5325 5320 5314 5309 5303 5298 5293 5288 5284 5280 5276 5272 5269 5266 5264 5261 5259 5257 5256 5254 5253 5252 5251 5251 5251 5251 5252 5252 5253 5254 5255 5257 5259 5261 5263 5264 5266 5268 5270 5273 5275 5278
5320 5316 5311 5306 5301 5296 5290 5285 5281 5276 5272 5269 5265 5262 5259 5257 5254 5252 5250 5249 5247 5246 5245 5244 5244 5244 5245 5245 5246 5246 5247 5248 5249 5251 5252 5254 5256 5258 5260 5262 5265 5268 5270
5311 5307 5302 5298 5293 5288 5283 5279 5274 5270 5266 5262 5259 5256 5253 5250 5248 5246 5244 5242 5241 5240 5239 5238 5238 5238 5238 5239 5240 5241 5241 5242 5243 5244 5245 5247 5248 5250 5252 5254 5257 5260 5262
Wind_Speed
42 42 43 44 45 46 47 47 47 48 49 50 52 53 54 54 54 56 58 60 60 59 59 59 59 60 60 60 61 61 62 63 62 61 62 62 63 63 63 63 63 62 62
43 43 44 45 46 47 48 49 49 49 50 51 52 53 54 55 55 56 58 60 60 60 59 59 59 60 60 61 61 61 61 62 62 61 60 60 61 62 62 62 63 62 62
43 44 44 45 46 47 48 49 50 51 51 52 52 53 54 55 55 56 57 59 59 59 58 58 59 60 61 62 61 61 61 61 61 61 59 59 59 60 61 61 61 61 61
44 45 45 46 46 47 48 49 50 51 52 52 53 54 54 55 55 55 56 58 58 58 58 58 58 59 60 61 61 61 61 60 60 60 59 58 58 59 60 60 59 59 59
44 45 46 47 47 48 49 49 50 51 52 53 54 54 55 55 55 55 55 57 58 58 58 58 58 57 57 58 59 59 59 59 58 58 58 58 57 57 58 57 57 57 56
44 45 47 48 48 49 49 50 50 51 51 52 52 53 53 54 54 55 55 56 56 57 57 57 56 55 56 56 56 57 57 57 57 58 57 57 56 56 57 56 55 55 54
45 45 46 47 48 49 50 50 51 51 51 51 51 51 51 52 53 53 54 54 54 54 54 55 54 54 55 55 55 55 56 56 56 56 56 55 55 54 54 54 53 53 52
45 45 46 46 47 48 49 50 50 50 51 51 51 51 51 51 51 51 52 52 51 51 51 52 52 52 53 53 54 54 54 55 55 55 55 53 53 52 51 52 52 51 50
45 45 45 46 47 48 48 49 50 51 51 51 51 51 51 50 50 50 51 51 51 51 50 51 51 50 51 52 52 52 52 52 52 53 53 51 50 49 49 49 49 48 47
45 45 46 47 47 48 48 49 50 50 50 50 50 50 49 49 49 50 50 50 50 50 49 49 49 49 50 50 50 50 49 49 49 49 48 48 47 47 47 47 46 46 45
46 46 47 48 49 49 49 49 49 49 49 50 49 49 49 49 49 49 49 49 49 48 48 48 48 48 49 49 49 48 47 47 47 46 45 45 45 45 45 45 45 45 43
47 48 48 49 49 49 49 49 49 49 49 49 49 49 49 49 49 48 48 48 48 47 46 46 47 47 47 46 46 46 46 45 44 43 43 43 43 43 43 44 44 44 43
47 48 48 48 48 48 49 48 48 48 48 48 48 48 48 48 48 48 47 47 47 46 45 45 45 45 45 44 43 43 44 43 42 42 42 41 41 41 41 42 42 42 41
47 47 47 47 47 48 48 48 48 48 48 47 47 46 46 47 47 46 47 46 46 45 44 43 43 43 42 42 41 41 41 41 41 41 41 40 40 40 40 40 40 41 40
46 46 47 47 47 47 47 47 47 47 47 46 46 45 44 44 44 45 45 45 45 44 43 42 42 42 41 40 40 40 40 39 39 39 40 39 39 39 38 38 39 39 39
45 46 46 46 46 46 46 46 46 46 45 45 45 45 44 44 44 43 43 43 42 42 41 41 40 39 39 39 39 39 39 38 38 38 38 38 38 38 38 38 38 38 39
44 45 46 46 46 46 46 45 45 44 44 44 44 44 44 43 42 42 41 40 40 40 39 39 38 38 38 38 38 38 37 38 38 37 37 37 37 38 37 36 36 37 38
44 45 45 45 45 45 45 44 43 43 42 42 42 42 42 41 40 39 39 38 38 38 37 37 37 37 37 37 37 36 36 36 36 36 36 36 36 36 36 35 35 35 35
43 44 44 43 43 43 43 43 43 42 42 41 40 39 39 37 37 36 36 36 35 35 35 35 35 34 34 34 35 35 35 35 34 35 35 35 35 34 34 34 33 33 34
42 42 42 42 42 42 42 42 42 42 41 40 38 37 35 34 34 34 34 34 33 33 33 32 32 32 32 32 33 34 34 33 32 32 32 33 33 33 33 33 32 31 32
40 40 41 41 40 40 40 40 40 39 38 36 35 34 33 32 32 32 32 31 31 31 31 30 30 30 30 30 30 30 30 31 31 30 31 31 31 32 32 31 31 30 31
39 39 39 40 39 39 39 38 37 36 35 34 33 32 32 31 30 30 29 29 28 29 29 29 28 28 28 28 28 28 28 29 29 30 30 30 30 30 30 30 29 29 30
38 38 38 38 38 37 37 36 35 34 33 32 31 30 30 29 28 27 26 26 26 26 26 26 25 25 25 25 25 25 26 27 27 28 28 28 29 28 28 28 28 29 28
37 36 36 36 36 35 34 33 32 31 30 29 29 28 27 26 26 25 24 24 24 23 23 23 22 22 22 22 22 22 23 24 25 26 26 27 27 28 28 28 28 28 28
35 35 35 34 33 33 32 31 30 29 28 27 27 26 25 24 23 23 22 22 22 21 21 21 20 21 20 20 20 20 20 21 22 24 25 25 26 27 27 27 27 27 27
34 33 33 32 32 31 30 29 28 27 26 25 24 24 23 22 22 21 21 21 20 20 19 19 19 19 19 19 19 19 19 19 19 21 23 24 25 26 26 27 27 27 27
Wind_Direction
281 281 281 281 280 280 279 278 279 278 278 278 278 276 274 275 275 273 271 271 271 271 271 270 270 270 269 270 269 268 268 268 268 268 268 267 267 267 266 265 264 263 262
283 283 282 282 282 282 281 280 280 280 279 279 279 278 276 276 275 275 273 271 271 270 270 270 271 270 270 269 270 269 268 269 270 269 268 268 268 267 266 264 263 263 262
285 284 284 284 284 284 283 282 281 280 280 280 280 280 278 277 276 276 275 273 271 271 271 272 271 271 270 268 269 269 269 269 270 269 269 268 268 267 266 264 264 263 262
286 285 285 285 285 286 285 284 282 281 281 280 281 281 279 278 277 277 276 275 272 272 273 272 271 271 269 268 268 269 269 269 269 270 269 268 268 267 265 264 263 263 262
287 287 286 286 286 286 286 285 284 283 282 282 282 281 280 278 278 278 277 276 274 273 273 272 271 270 269 269 268 268 268 268 269 269 270 269 267 266 265 264 263 262 262
289 288 288 287 287 287 287 287 286 285 285 284 283 283 282 281 280 279 278 276 276 275 274 273 272 271 269 269 269 268 268 268 268 269 269 269 268 266 265 264 262 261 261
290 290 289 289 288 288 288 288 287 286 286 285 284 283 283 282 281 279 279 278 277 277 276 275 274 272 271 269 269 268 269 269 269 269 269 269 268 267 265 264 263 262 261
291 291 291 291 291 290 289 289 288 287 286 286 285 284 283 283 282 281 279 278 278 278 277 276 275 273 272 270 269 269 268 268 268 268 268 268 268 267 265 264 263 262 260
292 292 292 292 292 291 291 290 289 288 287 286 286 285 284 283 283 282 280 279 278 278 277 276 275 274 273 271 270 269 268 268 268 267 266 266 266 266 265 263 262 260 259
293 293 293 293 292 292 292 292 291 290 288 287 287 286 285 284 283 283 282 281 280 280 278 276 276 275 274 273 272 270 269 267 266 265 264 263 264 264 264 263 261 260 259
293 293 294 294 293 293 293 292 292 291 290 288 287 286 285 284 284 284 283 282 281 280 279 276 275 275 274 274 273 271 270 268 266 264 262 261 262 262 262 261 260 259 258
293 294 294 294 294 294 293 293 293 293 292 290 288 286 285 284 283 283 283 282 282 280 279 277 276 274 273 272 271 271 270 269 266 264 262 261 261 260 260 259 258 258 258
295 295 295 295 295 295 294 294 294 294 293 291 289 287 286 284 283 283 282 282 281 280 279 277 276 275 273 271 270 270 269 268 266 264 263 262 261 260 258 257 256 256 257
295 295 296 296 295 295 295 295 295 295 294 292 290 289 288 286 284 282 282 281 281 280 278 276 275 273 271 270 267 266 266 267 267 265 263 262 261 260 258 256 255 256 256
296 296 296 296 295 295 296 296 296 296 295 293 291 290 289 287 285 283 282 281 280 279 278 277 274 271 269 268 267 265 265 265 266 266 264 263 262 260 258 256 256 256 256
297 297 297 297 297 296 296 297 297 297 296 294 292 291 290 288 286 285 283 282 280 279 278 276 273 270 268 266 265 264 264 264 265 265 264 263 262 259 258 257 256 256 256
298 299 299 298 298 297 297 297 297 297 297 296 294 292 291 289 287 284 283 282 280 278 277 275 273 270 268 266 264 263 262 263 264 263 262 262 260 258 257 254 254 255 255
300 300 301 300 299 299 299 299 298 298 297 296 295 293 291 289 287 285 283 282 280 278 277 275 273 270 267 265 264 263 262 262 262 261 260 259 258 256 254 252 252 253 251
302 302 302 301 300 300 300 300 300 300 299 297 296 293 291 289 287 285 283 282 280 278 277 275 274 271 268 265 264 262 262 261 261 260 258 256 255 253 252 251 250 251 249
304 304 304 304 303 302 301 301 301 301 300 299 297 294 292 289 287 286 284 283 281 279 278 277 274 271 269 267 264 263 262 259 259 258 256 254 253 252 252 251 250 251 248
306 306 306 307 305 305 305 304 303 303 302 300 298 296 294 292 289 287 286 284 281 279 277 276 275 273 270 268 265 263 261 257 256 256 254 253 253 252 251 250 249 249 247
307 307 308 308 308 307 306 307 306 305 303 301 299 297 295 293 292 291 289 286 283 280 277 276 275 273 271 268 265 262 259 255 254 254 253 253 252 252 251 249 249 247 245
308 309 309 310 309 309 308 308 307 306 305 303 301 299 297 295 293 292 291 289 286 283 280 277 274 272 270 268 265 262 259 256 254 253 252 252 251 250 249 248 248 247 246
309 309 310 311 311 311 310 310 309 308 307 305 304 302 299 297 296 294 292 291 289 286 283 278 274 270 268 267 265 262 259 257 254 252 252 252 251 249 248 247 246 245 245
309 310 311 313 314 314 314 313 312 312 310 308 306 304 302 300 298 296 293 291 290 288 284 279 274 270 268 266 264 261 260 259 256 254 252 251 250 249 248 247 247 246 246
309 310 311 313 314 315 315 315 314 313 312 311 309 307 305 302 301 299 297 294 290 287 284 281 276 271 268 265 263 262 261 260 259 256 254 251 250 249 249 249 248 247 246